GFSMW_sfc_wetblb_159.txt.gz
Wetbulb
70.06 71.44 72.16 72.82 73.08 74.11 74.42 74.80 74.72 75.77 75.51 74.60 74.23 74.28 74.33 75.65 76.29 76.50 77.22 77.22 77.32 77.74 77.09 75.59 75.98 76.28 75.67 76.38 76.58 75.58 74.85 73.31 73.57 70.86 68.00 68.01 70.45 70.20 72.04 70.16 71.17 71.24 72.14
69.45 70.74 71.78 72.41 72.70 73.34 74.20 74.80 75.00 75.78 75.74 75.50 75.44 75.55 75.68 75.95 76.51 76.94 77.14 77.25 77.42 77.81 77.03 77.18 76.42 77.25 76.39 76.61 76.37 75.19 73.06 72.61 72.45 67.90 65.98 62.58 65.28 70.66 68.35 71.03 68.89 71.32 70.42
68.62 69.99 70.82 71.62 72.73 73.02 73.79 74.33 75.24 75.66 75.99 76.29 75.96 75.90 76.05 75.80 75.20 75.38 75.74 76.85 77.56 77.95 77.88 77.08 77.32 76.90 76.53 73.93 74.22 73.73 72.29 68.71 69.99 70.63 66.71 61.64 61.04 64.25 68.18 68.24 69.22 69.52 69.40
69.44 70.31 70.39 71.07 71.79 72.88 74.29 75.17 75.65 75.71 75.95 76.54 75.80 75.65 74.45 73.54 74.42 75.24 75.68 76.69 77.34 77.67 77.28 76.87 76.16 74.83 74.28 73.30 73.12 73.10 71.54 70.56 66.70 68.43 70.63 69.91 68.10 62.58 61.48 66.08 67.28 68.39 67.56
68.64 69.08 69.86 70.72 72.08 72.97 73.67 74.70 75.69 76.11 76.69 76.19 76.57 75.49 75.11 74.91 75.52 75.79 76.28 76.99 76.38 75.36 73.73 72.89 72.11 73.15 72.24 72.91 71.91 70.79 70.39 70.41 68.38 67.35 67.14 67.49 67.02 67.65 64.41 61.11 62.73 65.05 65.98
68.33 69.07 70.19 71.07 72.02 72.94 73.53 74.28 75.26 76.20 76.30 75.76 75.56 75.85 76.30 75.83 74.75 75.32 75.08 75.02 74.52 73.86 72.83 71.66 72.22 72.89 72.14 71.09 70.50 71.01 70.12 69.91 69.23 68.65 68.22 66.31 64.32 63.52 63.20 61.46 61.25 60.63 61.79
67.96 68.64 68.84 69.79 71.08 71.63 72.69 73.63 74.57 75.08 75.26 75.25 75.50 75.63 75.94 76.54 76.55 76.17 75.47 75.26 73.48 71.31 71.42 71.57 70.51 69.91 70.87 71.02 71.22 71.18 70.85 69.78 69.05 69.02 66.85 66.61 65.45 65.29 63.65 61.65 59.31 58.01 60.05
67.66 68.24 68.74 69.54 70.49 71.34 72.56 73.36 74.14 73.90 74.98 75.42 76.02 76.39 76.31 75.00 75.33 76.31 75.57 75.10 73.72 73.17 70.04 69.59 69.34 69.69 70.08 70.10 70.89 70.69 70.22 70.13 68.50 67.83 67.34 65.52 64.39 63.73 62.40 60.55 58.93 57.28 58.64
67.52 67.76 68.69 69.70 70.68 71.42 72.98 73.62 74.15 74.56 75.40 75.48 76.16 76.76 76.64 76.31 76.05 76.58 75.99 74.16 71.61 69.18 69.13 68.74 68.60 69.37 69.70 69.85 70.62 69.90 69.57 68.51 67.61 66.72 65.70 62.91 61.66 61.79 61.96 62.02 61.25 58.88 55.43
66.85 67.61 69.09 70.08 70.81 71.67 72.73 73.07 73.97 74.50 75.37 75.39 74.70 76.49 76.69 76.68 77.03 76.78 71.83 68.38 67.14 67.32 68.42 67.79 68.55 69.67 69.45 69.93 70.46 69.33 68.42 67.44 65.80 63.89 63.24 62.23 61.23 61.74 62.70 62.21 62.18 61.37 59.01
66.23 67.42 68.15 69.23 70.10 70.97 71.88 72.31 73.23 74.12 75.16 75.50 75.75 75.79 76.26 76.34 76.83 74.66 72.11 68.46 67.28 67.14 67.36 68.31 68.89 68.24 69.44 69.86 68.43 67.07 67.02 65.30 64.58 63.74 61.69 61.55 63.20 62.25 62.43 62.70 62.28 61.21 60.50
66.25 67.75 68.16 68.71 69.20 69.94 71.07 71.93 73.96 74.46 75.30 75.94 76.97 76.75 76.44 75.53 76.15 72.42 68.84 69.45 69.02 68.65 68.21 68.39 67.97 68.63 69.71 69.09 66.91 65.48 64.89 64.62 63.22 61.98 61.41 60.57 61.95 62.83 63.08 62.47 62.30 61.30 60.79
67.15 67.88 68.14 68.52 69.38 70.67 71.42 72.59 73.21 73.42 74.38 76.06 75.56 76.02 76.80 74.14 75.24 73.91 72.51 71.85 71.86 68.63 68.94 68.25 67.97 68.79 69.65 67.29 66.54 65.41 65.51 64.26 62.58 61.55 60.92 60.17 61.98 61.98 62.16 62.08 60.80 59.98 61.00
66.81 67.62 68.79 70.53 71.10 71.90 72.18 72.15 72.60 73.72 74.67 75.63 75.73 76.10 75.59 74.36 73.45 72.99 72.38 72.55 70.78 69.29 68.00 67.74 68.42 69.82 69.11 67.19 66.37 65.77 65.10 63.65 62.07 62.05 60.96 60.54 61.88 62.12 61.13 61.39 60.61 60.86 58.93
66.34 67.33 68.23 69.71 70.57 71.12 71.59 72.34 73.37 74.42 75.63 75.55 75.87 76.08 75.16 74.81 73.87 71.80 72.06 71.16 70.06 68.59 68.14 67.95 69.39 69.29 67.25 65.73 66.26 65.34 62.91 61.30 60.84 61.46 60.61 61.10 61.99 60.53 60.82 59.82 59.97 59.21 56.45
66.49 67.24 68.08 68.90 69.93 71.04 71.64 72.47 73.72 74.99 76.05 75.63 74.82 75.07 74.55 72.85 71.75 71.34 70.99 70.84 69.41 68.05 67.67 68.71 68.59 67.64 65.73 61.08 61.16 62.61 61.92 61.69 61.50 59.77 59.89 62.39 61.52 61.46 59.84 60.02 59.16 58.31 55.19
67.08 67.31 67.79 68.55 70.01 71.37 72.60 72.85 74.17 75.05 74.87 74.89 74.59 73.48 71.94 70.87 70.92 71.09 69.73 68.53 67.22 67.27 67.71 68.28 68.36 67.29 65.93 59.54 59.38 59.92 62.22 61.57 60.45 59.22 60.19 61.34 61.40 60.78 59.32 58.72 58.09 58.80 57.46
67.79 68.05 68.36 69.19 70.66 72.15 73.26 74.42 74.15 73.64 73.86 73.21 72.42 71.87 71.08 70.54 70.13 68.87 67.91 67.40 67.01 66.54 67.17 68.14 68.38 66.65 66.39 58.76 57.34 58.07 62.16 61.13 59.44 59.31 60.94 61.30 60.95 60.59 56.43 56.19 57.72 57.50 54.59
68.91 69.62 69.83 70.16 70.34 71.07 73.04 73.17 72.81 72.77 72.43 72.01 71.82 71.47 71.32 70.31 68.98 67.90 67.60 67.43 66.64 67.07 67.78 68.48 67.76 66.93 66.50 56.81 55.45 57.78 61.34 58.46 58.34 59.21 61.51 60.46 59.59 54.94 52.99 55.33 55.99 54.27 54.47
69.76 69.14 69.74 70.10 70.39 70.79 72.16 71.78 71.22 71.22 71.30 71.37 71.59 71.23 70.93 69.94 69.05 68.91 68.18 67.47 67.54 67.59 67.74 67.56 67.13 62.72 66.53 53.78 53.03 55.40 57.66 57.02 56.35 58.96 60.87 57.42 55.21 51.65 49.92 53.31 54.23 51.70 51.65
68.17 69.76 70.01 69.89 70.03 70.90 71.41 70.58 70.09 70.31 70.78 70.61 70.63 70.41 70.44 70.48 70.12 69.05 68.09 67.45 67.36 67.68 67.42 66.59 66.81 66.32 64.09 60.07 50.63 50.24 57.12 55.41 55.23 56.64 57.78 58.19 51.29 48.39 47.65 48.14 52.03 49.62 52.06
67.99 68.93 68.99 68.94 69.48 70.32 70.38 69.63 69.70 69.87 70.27 70.11 69.60 69.80 70.12 69.59 68.74 68.16 67.14 67.25 67.29 67.28 66.79 66.48 65.06 63.72 62.60 51.63 49.13 48.81 49.61 52.32 56.30 56.49 56.76 55.94 48.09 46.24 46.85 49.76 47.33 48.03 51.87
67.08 68.74 68.91 68.82 69.35 70.47 71.32 69.74 68.57 68.98 67.71 67.56 68.06 68.85 69.91 69.04 68.12 67.32 66.40 65.63 66.71 65.65 65.61 65.06 64.69 63.22 60.77 56.95 48.42 48.28 49.08 50.57 55.08 55.01 51.83 49.85 46.99 46.53 50.74 48.75 48.39 49.79 51.29
60.25 61.32 61.62 61.73 63.46 67.04 68.20 68.35 67.21 68.31 67.70 67.62 67.56 67.96 68.14 66.73 66.56 66.23 66.08 65.66 65.37 65.92 66.66 63.59 63.87 62.26 57.87 55.44 56.78 57.32 56.89 52.86 54.09 53.53 52.58 49.43 48.78 47.89 49.63 51.82 51.63 51.52 51.51
60.73 61.31 61.77 62.29 62.61 64.37 66.22 67.91 67.51 67.72 67.69 67.54 67.16 66.88 65.02 65.09 65.66 65.00 64.28 65.78 65.20 62.08 63.70 62.30 62.79 60.32 56.07 54.70 49.69 50.77 54.20 53.70 49.64 51.65 50.94 48.59 48.01 47.26 46.91 49.61 50.33 50.11 51.11
61.35 61.53 62.26 62.34 62.71 63.60 64.62 66.06 66.77 68.17 67.86 66.76 65.55 64.25 63.08 62.93 62.36 61.74 56.70 49.46 49.54 48.25 46.44 44.59 55.66 55.89 47.85 42.90 42.13 42.09 42.24 42.87 44.03 49.18 47.14 45.42 45.16 44.59 44.50 46.35 48.31 49.23 48.91

GFSMW_sfc_wetblb_162.txt.gz
Wetbulb
70.35 72.22 73.46 74.29 74.59 75.44 75.99 76.78 76.65 77.73 77.12 75.93 75.32 75.27 75.32 76.46 77.21 77.74 78.41 78.98 78.54 78.66 79.15 77.58 77.18 77.59 76.76 77.84 77.89 75.92 73.30 71.65 72.64 69.65 67.65 68.45 70.40 71.62 71.17 70.45 69.68 70.17 71.31
69.23 70.62 72.61 73.94 74.27 74.70 75.99 76.53 76.94 77.63 77.59 76.65 76.37 76.26 76.17 76.14 76.49 77.02 78.35 79.00 78.59 78.40 78.53 78.86 78.01 78.32 77.38 77.77 77.05 75.30 70.87 68.78 70.96 67.90 66.66 63.42 66.50 69.93 69.19 70.85 70.55 71.81 71.66
68.51 70.04 71.39 72.93 74.07 74.45 75.62 76.43 77.21 77.43 77.97 78.07 77.39 77.33 77.81 77.58 76.45 76.72 76.85 77.56 78.50 78.73 79.23 79.61 79.17 79.18 78.59 75.36 75.21 73.07 71.73 67.62 68.49 70.38 67.83 64.32 62.56 65.84 69.58 68.88 70.05 70.41 70.05
69.20 70.90 71.80 72.83 73.62 74.53 76.06 76.97 77.74 77.92 78.10 78.78 78.73 78.26 75.17 74.16 75.61 76.73 76.68 77.14 78.57 78.47 79.31 79.97 79.45 78.96 75.87 74.53 73.82 72.10 71.15 70.57 66.95 69.48 71.10 70.08 68.93 64.28 63.47 67.13 67.38 68.72 68.24
68.97 69.87 71.43 72.98 74.18 74.94 75.38 76.62 77.83 78.66 79.36 78.82 79.10 77.44 76.72 75.91 76.89 77.02 77.87 78.73 78.82 79.02 78.30 78.39 77.33 75.94 74.98 74.85 73.04 71.75 71.25 69.86 69.70 68.31 68.20 68.76 67.73 67.87 64.64 61.60 63.17 65.28 65.71
69.69 70.15 71.81 73.17 73.71 74.83 75.20 75.91 77.87 79.55 79.43 79.05 78.46 78.62 78.57 77.72 76.39 76.84 76.22 76.40 76.65 77.06 77.54 76.73 76.36 75.88 73.92 72.36 71.37 71.55 71.46 71.51 70.99 70.12 69.02 66.55 64.62 63.64 63.05 61.67 62.00 61.53 62.86
70.68 70.47 70.65 71.49 72.86 73.73 74.41 75.07 76.99 77.79 78.39 78.20 78.30 78.26 78.23 78.79 77.98 77.88 77.00 77.38 75.13 74.63 76.91 75.91 73.94 72.90 72.56 72.41 72.01 71.76 71.94 71.54 70.09 70.17 67.23 66.43 65.21 65.06 63.91 62.04 60.42 59.83 62.12
70.48 71.10 71.43 71.67 72.25 73.22 74.51 75.31 76.06 77.97 78.07 78.12 79.24 80.00 79.77 77.71 77.62 78.45 77.22 77.03 76.47 75.94 74.87 72.93 71.96 71.80 72.03 71.85 72.01 71.09 70.50 71.40 69.95 68.74 68.17 66.11 64.38 63.40 62.48 61.14 60.22 59.20 60.35
69.57 70.47 71.82 72.42 72.74 73.13 74.04 74.96 76.84 78.21 78.49 78.12 79.65 79.89 79.72 79.19 78.03 79.73 78.65 77.83 77.89 75.08 73.13 71.44 71.99 72.77 72.13 71.49 71.51 70.25 71.00 70.73 68.89 67.30 66.90 64.66 63.29 63.24 63.39 63.60 63.67 61.41 58.03
68.44 69.96 71.31 72.98 73.24 73.88 74.26 75.18 76.07 77.40 78.15 77.96 79.02 78.59 78.86 78.86 79.04 79.15 78.47 78.58 77.46 75.79 71.40 71.42 71.75 71.55 71.43 71.26 72.10 70.93 70.95 68.55 66.31 65.58 65.86 65.00 63.60 63.62 63.76 63.65 64.18 64.08 62.08
67.32 69.00 70.34 72.07 72.95 73.60 74.29 74.69 75.58 76.25 77.20 77.77 78.32 78.30 78.16 78.56 78.90 78.22 78.50 78.51 76.82 74.32 72.65 72.06 72.13 71.81 71.32 71.01 71.40 71.05 68.67 67.45 66.73 66.40 64.98 64.55 65.18 62.70 63.14 64.90 64.87 64.00 62.98
67.43 69.11 69.91 70.85 72.19 72.70 73.65 74.28 75.67 76.47 77.11 77.80 78.80 79.35 78.64 78.99 78.54 78.79 78.84 77.82 76.57 73.80 73.16 72.62 72.21 72.16 70.55 71.20 71.13 69.50 67.16 66.77 65.82 65.68 65.00 64.12 63.01 63.48 64.83 64.74 65.43 64.35 64.83
69.37 69.41 70.20 70.90 71.99 72.73 73.33 74.42 75.31 75.61 76.84 77.58 77.75 78.26 79.19 79.01 79.43 78.62 78.33 76.89 73.52 74.22 73.48 72.87 71.92 71.15 70.91 71.05 70.91 68.90 67.26 67.14 66.23 65.50 64.68 63.89 63.35 62.51 63.94 64.90 63.50 63.19 63.60
70.40 70.48 71.22 72.72 72.85 73.94 74.00 74.26 74.73 76.05 76.60 76.95 77.24 77.43 77.83 78.12 77.92 78.58 77.61 76.04 75.84 74.75 73.57 72.52 71.67 71.16 70.93 70.85 70.10 67.80 67.47 67.37 66.09 65.93 65.16 64.17 62.75 62.87 64.25 63.18 63.06 63.03 61.97
70.39 71.22 71.81 72.79 73.35 73.67 74.48 74.79 75.46 76.14 76.66 76.91 76.98 77.25 78.13 78.51 77.63 77.53 76.62 76.14 75.90 73.58 72.90 72.19 71.13 70.82 70.62 69.52 69.07 67.52 67.41 66.82 65.89 65.93 65.43 63.69 62.85 63.15 62.58 61.27 61.36 61.72 59.83
69.98 71.47 72.37 73.38 73.69 74.03 74.47 74.94 75.47 76.14 77.03 76.93 77.15 78.07 78.46 76.85 76.42 75.32 75.20 75.29 73.32 72.96 72.50 71.34 70.33 70.17 69.02 61.82 62.52 64.95 66.62 66.49 65.82 65.11 64.15 62.77 62.60 63.12 61.59 61.15 60.11 59.81 59.10
69.29 71.60 72.39 73.45 74.54 74.87 75.37 74.95 75.84 77.27 77.36 77.56 77.97 77.66 75.93 74.09 73.31 73.28 73.53 72.76 72.50 73.24 71.90 70.26 70.05 69.48 69.62 60.53 60.50 62.23 65.98 66.09 65.90 64.86 62.24 61.13 61.49 63.23 62.97 58.91 58.83 60.85 60.32
68.06 71.59 72.68 73.32 74.45 75.28 75.72 76.42 77.13 77.60 77.45 77.50 77.00 74.17 73.28 72.67 72.78 72.27 72.91 73.59 73.09 71.46 69.99 69.87 69.96 69.61 69.29 59.50 58.72 60.84 65.27 66.06 65.37 62.88 61.75 61.66 62.69 62.04 56.48 56.98 60.03 62.09 61.81
69.67 72.65 73.25 73.89 74.66 75.47 76.65 76.90 76.41 76.63 76.55 76.20 75.53 73.72 73.42 72.95 72.01 71.87 72.70 72.09 70.86 70.07 69.61 69.53 69.73 69.57 68.94 57.69 56.95 59.82 65.62 65.19 62.84 61.93 61.82 62.11 62.19 54.92 52.26 56.06 59.27 60.00 60.42
72.25 72.82 73.34 74.16 74.89 76.07 76.46 75.76 75.61 75.41 75.30 75.49 75.36 74.64 74.33 73.25 72.11 73.16 71.96 71.40 70.52 69.71 68.73 69.01 69.77 65.85 68.15 55.30 54.41 58.25 63.90 62.38 60.60 61.68 61.79 55.29 55.16 50.61 49.51 54.57 57.78 56.70 56.08
72.32 73.31 73.38 73.51 74.41 75.39 75.56 74.35 74.16 73.45 74.60 75.15 75.25 74.99 75.13 74.24 73.96 71.64 70.89 70.09 69.64 69.57 69.13 68.84 68.76 68.44 67.45 62.01 51.88 51.87 59.83 59.71 57.74 58.45 58.29 59.24 50.08 48.28 47.44 47.76 55.59 53.22 52.86
72.21 73.15 72.51 72.72 73.69 74.03 73.04 72.48 72.35 74.00 74.38 74.58 74.50 74.54 74.77 73.50 71.77 71.02 70.86 70.29 69.92 69.04 68.70 68.16 67.38 67.62 67.19 56.75 50.36 50.10 50.60 52.92 57.75 58.02 57.80 57.36 47.13 45.98 46.44 50.41 47.99 48.65 52.65
70.70 71.04 70.97 71.62 72.85 73.59 73.22 71.71 72.53 73.79 73.40 73.58 73.37 72.04 72.06 72.49 72.12 71.04 69.60 68.83 69.20 67.47 67.18 66.56 66.10 65.71 66.37 59.36 49.41 48.99 49.81 51.77 55.28 56.65 51.49 49.50 47.20 46.33 50.52 49.84 49.71 51.86 55.41
67.32 67.36 66.68 66.29 67.34 69.73 72.08 73.03 72.86 72.60 72.00 70.40 71.03 71.20 71.15 70.68 70.70 70.47 69.92 68.70 67.68 66.46 66.16 66.14 65.23 66.09 64.81 61.40 60.31 59.32 58.20 53.71 55.10 55.10 55.76 51.57 49.49 48.81 50.41 53.66 54.19 54.43 54.31
64.11 64.43 64.14 64.40 65.41 67.09 67.82 69.82 71.84 72.65 70.83 70.87 70.72 70.73 70.32 70.28 69.16 66.19 63.72 69.06 65.48 63.51 66.54 65.84 66.13 64.15 62.41 58.11 49.91 53.06 56.84 55.17 51.32 51.75 54.66 51.91 51.01 50.64 50.63 52.08 53.03 53.31 53.44
63.16 63.50 64.12 64.26 64.90 66.03 66.73 68.24 69.61 70.77 70.84 68.70 67.29 66.77 67.28 67.01 67.17 64.10 58.58 47.92 48.77 47.31 46.62 47.33 54.71 57.40 48.42 43.46 42.82 42.69 42.94 43.24 44.44 52.94 50.76 49.73 49.43 48.63 48.88 49.13 50.17 51.12 51.11

GFSMW_sfc_wetblb_165.txt.gz
Wetbulb
70.77 72.48 73.49 74.29 74.84 75.94 76.52 76.95 76.92 79.52 77.56 76.34 75.76 75.45 74.50 75.50 76.02 76.75 78.31 78.54 78.45 78.02 78.32 76.47 76.55 77.11 76.99 77.85 77.41 76.51 75.72 70.06 71.75 69.40 68.47 68.95 70.03 71.43 71.09 70.19 70.89 71.33 71.97
68.94 70.70 72.22 73.37 74.07 74.86 76.20 76.99 77.46 78.95 78.28 77.10 77.03 76.78 76.48 75.51 76.08 76.55 78.52 78.85 78.52 78.48 78.26 78.51 78.02 78.15 76.38 78.81 77.95 76.37 71.78 70.04 70.22 67.80 67.62 65.23 66.69 69.19 69.55 70.50 69.83 71.01 70.81
67.84 69.61 71.25 72.68 73.55 74.18 75.23 77.10 78.38 78.96 79.43 79.93 78.00 77.54 77.79 77.15 75.74 76.23 76.34 77.87 78.67 78.90 79.02 78.93 79.09 79.46 78.74 75.58 77.16 74.96 73.29 67.87 69.61 71.06 68.25 64.50 62.18 65.65 69.38 70.16 69.02 70.17 68.84
68.39 69.52 70.40 72.05 73.01 73.55 75.12 77.52 78.58 79.38 79.56 80.51 78.33 79.01 75.65 74.05 74.77 76.14 76.58 77.04 78.27 78.45 78.65 79.57 79.63 79.69 78.16 77.14 75.88 73.97 72.54 73.27 68.30 69.11 69.76 72.64 69.47 64.26 63.26 66.61 67.90 69.50 69.87
67.83 69.26 70.29 71.58 72.99 73.74 74.20 75.78 79.25 80.17 80.73 80.42 79.76 78.00 77.35 75.81 75.73 76.10 80.13 81.07 80.22 78.86 78.86 79.89 79.41 79.20 77.38 78.25 75.56 72.96 72.48 70.46 69.86 68.65 69.06 70.21 67.74 69.55 63.74 60.59 63.19 65.44 65.59
68.21 69.84 71.74 72.53 72.84 73.56 74.18 75.07 78.83 80.46 81.16 81.25 80.52 80.75 80.10 78.40 76.17 76.67 76.06 75.98 76.74 77.54 79.36 78.86 78.96 78.52 76.79 75.31 73.54 73.17 72.20 72.65 71.67 70.37 70.39 66.68 64.55 63.27 62.53 61.33 62.54 62.11 64.19
69.07 68.84 70.60 72.61 74.09 73.86 74.36 74.78 78.58 79.85 80.90 80.45 80.35 80.33 80.64 81.68 80.26 80.07 76.32 77.52 75.05 75.26 78.76 78.89 77.78 75.95 75.81 74.40 73.80 73.32 72.47 72.07 70.87 71.36 68.72 67.09 65.38 64.63 63.08 61.15 59.96 59.52 62.13
70.17 69.74 69.65 71.12 72.93 73.73 75.72 76.12 77.10 79.57 80.80 80.62 80.83 81.51 81.40 78.42 78.09 79.56 77.02 76.19 75.49 76.11 79.87 78.03 77.12 74.90 74.05 73.58 74.04 71.80 71.49 72.15 71.48 70.70 70.17 66.96 65.39 64.41 63.05 61.46 60.67 59.31 60.97
69.42 70.84 71.08 70.55 72.48 73.85 75.38 75.91 77.07 79.50 80.50 80.57 81.17 81.48 81.37 80.95 78.71 80.02 81.20 77.63 80.27 77.16 78.68 76.98 75.45 74.13 74.31 73.78 73.19 71.46 71.44 72.57 71.37 69.71 69.01 66.89 64.89 64.49 63.80 63.43 63.00 61.03 58.52
68.10 69.77 71.71 73.45 71.98 72.58 74.19 75.07 76.69 78.84 80.37 80.73 81.28 81.18 81.63 81.68 81.27 81.81 81.12 79.26 80.30 80.83 78.77 75.67 74.28 74.00 73.97 73.46 73.13 72.02 72.56 71.38 69.14 67.18 68.07 67.17 65.60 65.53 64.13 62.74 63.04 63.87 62.54
66.25 68.15 70.16 72.24 73.13 72.17 72.48 73.85 75.45 77.32 80.11 79.98 80.18 80.63 81.20 81.25 81.78 80.97 81.29 80.72 81.33 80.95 76.36 75.63 74.49 73.54 73.44 73.44 72.64 72.45 71.40 69.40 68.48 68.05 67.37 66.47 68.33 64.39 63.94 62.92 63.81 63.43 63.79
65.49 66.75 68.68 70.62 72.21 73.09 73.72 73.06 75.82 76.73 79.15 80.43 81.11 81.04 81.66 81.66 81.29 81.08 80.99 81.76 81.48 80.07 76.74 73.22 74.18 73.83 73.54 73.02 72.31 71.43 70.55 68.13 67.53 67.19 67.08 65.99 64.99 66.32 66.56 62.72 64.82 63.31 65.57
68.55 69.38 69.38 70.37 72.47 74.00 75.07 76.05 76.43 76.83 78.89 80.63 80.97 81.62 81.76 82.05 81.59 81.82 81.54 81.62 81.06 79.22 77.60 75.15 73.31 73.56 73.33 72.39 72.19 71.62 69.80 68.20 67.43 67.40 66.52 65.94 65.79 66.05 64.27 64.17 63.31 62.85 63.27
69.03 71.01 71.53 74.38 74.80 76.35 76.82 77.29 76.98 77.22 79.03 79.91 80.25 80.53 80.48 80.96 80.45 81.48 80.83 80.41 79.80 77.74 76.30 72.60 72.79 74.04 72.89 72.30 72.18 70.51 69.44 68.01 67.78 67.56 67.01 66.41 65.46 65.13 63.88 63.15 64.09 63.98 61.96
67.92 70.85 72.04 74.19 76.96 77.77 77.85 78.28 78.03 78.76 79.48 80.00 79.66 79.92 80.15 80.22 79.68 79.20 78.59 78.62 77.68 77.12 76.63 74.26 74.17 73.43 72.34 71.67 71.19 69.76 68.51 67.90 67.45 67.31 67.15 66.86 64.50 63.14 63.04 61.92 62.64 61.97 59.55
66.67 69.71 72.90 73.64 75.20 76.30 77.37 77.45 78.35 79.32 79.37 78.86 78.73 79.60 80.19 79.38 79.14 78.63 78.15 78.13 76.31 73.91 74.45 73.83 73.34 72.55 71.28 63.17 64.94 66.61 67.54 67.23 67.09 66.73 66.92 66.19 64.26 63.27 61.84 61.37 60.12 59.85 59.86
64.99 68.71 72.85 75.34 76.96 75.86 77.70 75.99 77.25 79.03 79.73 79.42 78.58 78.64 79.45 78.89 78.54 77.79 76.73 75.71 73.98 74.20 73.45 73.61 72.64 71.64 71.34 61.64 62.38 63.10 65.71 66.31 66.88 67.06 66.33 63.60 62.24 63.05 62.77 60.19 58.51 60.18 61.09
65.60 67.93 71.96 74.83 76.62 76.81 77.19 77.97 77.22 78.35 77.56 78.17 78.36 79.28 78.63 77.16 76.72 76.13 74.52 73.57 73.12 73.06 71.84 72.82 72.11 71.41 68.32 60.19 60.58 62.20 66.40 66.93 67.06 67.14 64.81 63.27 63.05 59.98 57.38 56.94 58.47 60.45 62.24
68.09 70.11 71.51 75.71 76.73 76.63 77.83 78.35 77.69 77.85 78.00 77.96 77.94 76.25 76.67 75.52 74.44 73.37 74.13 74.13 73.33 73.16 72.12 71.81 71.29 70.49 68.79 58.50 58.38 61.98 66.34 66.28 67.11 65.19 64.23 63.06 62.19 51.42 52.22 55.97 57.36 59.33 59.85
69.63 70.85 73.45 75.30 76.04 77.69 77.45 78.20 77.91 77.44 77.37 77.11 76.44 75.84 75.70 75.51 74.36 74.68 75.33 74.70 73.62 71.75 70.91 70.16 71.73 67.45 69.93 56.84 56.34 60.58 65.33 65.19 63.71 65.89 64.82 53.75 55.78 50.55 49.75 54.72 56.28 56.06 57.24
72.71 74.08 74.13 74.51 76.07 77.73 78.00 76.97 76.81 76.32 77.00 77.05 76.67 76.54 76.48 75.60 75.24 75.67 74.65 72.44 71.60 71.45 71.34 69.94 71.46 70.38 68.24 62.05 54.21 53.80 61.23 62.24 60.42 60.14 60.26 58.07 50.13 48.13 47.54 47.75 56.37 53.79 53.97
73.09 73.93 74.29 75.86 77.12 77.52 77.21 76.29 75.74 76.07 75.94 76.11 75.98 76.01 75.91 75.03 74.11 72.96 72.17 71.78 71.45 70.22 70.05 69.93 68.53 67.67 69.57 57.94 51.96 51.56 51.80 54.03 58.37 59.56 58.06 56.19 47.39 46.35 46.80 49.58 49.08 49.74 52.18
73.91 74.80 74.58 74.86 75.40 75.53 75.39 73.63 75.01 75.59 75.92 75.33 75.24 75.06 73.88 72.72 72.53 71.02 71.68 70.80 70.58 70.12 68.17 67.27 67.70 67.04 67.60 61.91 50.19 50.58 52.00 52.51 56.34 58.14 52.66 50.35 48.82 47.47 50.08 48.83 50.12 51.17 54.49
72.32 72.98 72.79 72.08 72.70 73.19 73.63 73.81 74.19 74.59 74.13 73.61 73.55 73.94 73.28 72.44 72.84 71.69 71.14 70.22 68.46 68.29 66.05 65.70 67.40 66.82 66.65 62.61 59.27 56.65 56.72 53.39 56.29 57.59 57.21 54.89 51.58 51.61 51.37 53.91 54.38 54.48 54.95
70.25 69.62 68.42 68.28 68.96 70.91 72.26 73.27 74.07 74.57 73.46 73.27 72.91 72.46 70.59 71.52 67.88 61.10 58.78 66.55 58.95 58.84 66.09 67.57 67.90 66.12 65.80 54.39 47.74 53.94 58.06 55.34 51.40 51.65 56.26 53.91 52.98 52.32 52.30 52.73 53.46 52.39 52.85
66.10 65.95 66.15 66.49 66.51 67.37 68.37 71.05 72.26 72.48 71.88 70.97 71.16 71.03 70.87 69.50 66.85 64.28 62.18 48.71 49.93 49.35 50.24 51.12 60.21 57.10 49.91 43.30 42.84 43.30 43.91 44.60 45.56 53.46 52.92 52.25 51.90 51.11 51.02 51.35 51.25 51.16 51.95

GFSMW_sfc_wetblb_168.txt.gz
Wetbulb
70.64 72.39 73.06 74.31 75.11 75.96 77.07 77.23 77.78 79.40 78.37 77.05 75.55 75.27 74.98 75.96 76.29 76.69 79.48 80.78 79.54 80.12 80.83 77.97 77.67 78.03 77.44 78.09 78.02 77.62 75.18 72.29 72.83 69.28 68.65 68.60 70.75 71.24 68.68 69.51 70.27 70.40 71.89
69.03 71.32 72.97 74.01 74.56 75.53 76.47 77.48 77.67 79.06 78.23 77.52 76.94 77.01 76.09 76.00 75.89 77.40 80.15 79.39 79.58 80.04 79.67 79.68 78.17 78.82 78.20 79.24 77.00 77.35 73.89 72.08 71.35 69.43 67.83 65.47 67.00 67.38 67.97 70.30 69.51 69.55 69.30
67.43 70.11 71.89 72.82 74.02 74.59 75.96 76.94 77.56 77.94 78.04 78.23 77.94 77.47 79.69 77.76 77.93 78.43 79.03 78.86 79.26 79.87 80.84 80.36 79.93 80.22 80.14 77.47 78.05 76.23 73.71 69.19 70.36 71.35 68.15 64.95 62.21 64.99 68.50 68.00 68.26 69.87 68.33
68.46 70.26 71.57 72.22 73.04 74.22 76.14 77.26 77.92 78.22 78.75 78.28 78.06 76.87 74.36 74.22 75.29 77.31 78.22 77.07 79.38 78.85 79.17 79.90 79.94 80.37 79.08 77.73 76.29 75.40 73.23 72.26 67.95 69.92 70.98 70.56 69.14 64.60 62.40 66.11 66.57 67.40 65.81
67.52 69.03 70.66 72.44 73.13 74.09 75.23 76.10 77.91 77.85 78.44 78.49 77.82 77.19 76.40 75.61 75.95 76.28 77.35 79.23 79.82 79.45 78.80 79.60 79.54 79.68 79.68 79.32 75.89 74.22 72.12 71.25 71.17 69.43 68.82 69.21 68.12 67.56 63.22 59.10 60.97 62.66 64.08
67.14 69.23 70.92 72.59 72.88 73.79 74.31 75.57 77.15 77.39 78.06 78.35 77.83 77.92 76.78 75.45 76.12 76.11 76.66 77.29 77.86 78.64 79.18 79.24 80.04 80.34 78.92 76.29 74.28 73.85 73.50 72.41 72.17 71.56 71.24 68.43 64.83 63.26 61.79 59.67 59.26 59.41 60.92
67.80 68.62 70.34 70.74 72.21 72.62 73.35 74.14 75.83 76.61 77.79 78.08 78.10 77.20 78.10 78.51 76.67 78.96 76.66 77.58 75.98 76.24 78.02 78.85 79.76 78.59 78.39 76.82 75.96 74.43 73.58 72.78 72.41 72.23 70.44 69.02 66.43 65.50 63.54 61.22 59.08 58.18 60.28
69.06 68.70 70.52 71.39 72.03 72.41 73.19 73.67 75.11 76.43 77.85 78.00 78.76 78.70 78.10 78.23 79.32 78.20 77.11 77.63 75.73 77.18 79.75 78.59 78.30 77.48 76.46 75.06 75.59 73.88 72.44 73.06 72.61 71.82 70.35 68.94 67.16 65.78 64.18 61.76 59.24 57.56 57.92
68.87 69.36 69.97 71.98 72.74 73.01 73.19 73.74 74.67 76.60 77.92 78.53 78.60 79.27 79.40 78.54 77.44 78.80 79.53 77.11 79.79 76.93 78.59 78.13 76.92 76.46 75.47 75.11 74.70 72.24 72.56 72.88 72.81 71.67 70.71 68.16 67.03 65.78 64.39 63.75 62.01 58.26 54.95
68.02 70.16 70.21 70.64 72.72 73.95 74.11 74.63 75.02 76.98 78.09 78.93 79.12 79.06 79.32 79.79 79.08 79.07 77.95 78.95 77.89 79.59 79.25 77.46 76.70 75.14 74.69 74.32 73.98 72.54 73.16 72.71 72.31 70.04 69.14 68.00 67.23 65.66 65.13 63.81 62.47 60.80 59.37
66.77 68.57 70.83 71.32 71.69 72.87 73.96 74.62 74.89 74.97 77.74 79.18 79.18 79.29 79.42 79.72 80.28 78.90 79.67 78.56 80.12 79.94 79.70 76.56 75.15 74.25 74.11 71.99 71.65 72.51 73.69 72.01 71.08 69.70 68.22 68.03 68.25 66.22 64.78 64.23 63.12 60.50 60.58
65.70 67.38 69.22 71.76 71.70 71.30 72.06 73.32 74.45 75.08 75.97 78.79 79.07 79.22 79.95 80.04 80.00 79.91 79.10 80.55 79.31 80.85 80.12 77.16 74.48 74.00 73.73 73.60 72.98 72.41 72.07 70.81 69.17 68.61 68.17 67.64 66.51 66.52 65.96 64.10 62.14 60.68 61.89
68.90 70.49 71.17 74.06 72.38 72.23 71.95 72.48 73.72 73.97 75.82 77.62 78.86 78.92 79.55 79.74 79.91 79.99 80.43 79.98 80.32 79.56 79.50 77.64 75.07 74.50 73.68 73.06 73.50 73.03 72.23 70.57 69.34 68.27 67.79 67.25 66.86 66.11 65.14 63.04 61.88 61.49 61.81
71.95 72.43 77.02 77.76 78.84 73.79 73.74 73.29 73.47 74.39 75.49 77.34 78.72 78.31 79.31 79.54 80.39 80.47 80.46 80.28 80.16 79.63 78.21 76.33 74.79 72.87 72.68 73.45 73.16 72.78 71.13 70.10 68.38 68.71 68.08 67.61 66.72 64.29 63.12 62.08 62.42 61.40 58.86
70.41 72.75 75.66 78.38 80.07 78.63 76.66 76.09 75.63 75.19 76.56 77.62 78.36 78.70 79.72 80.59 80.59 80.19 80.03 80.23 79.70 78.70 74.90 73.70 73.10 73.45 73.42 72.34 72.28 71.92 70.18 68.98 68.46 67.91 68.04 67.34 65.88 64.71 63.20 61.57 60.56 59.23 56.41
68.99 71.75 74.67 76.79 78.69 80.75 80.09 79.18 78.86 78.45 78.61 77.84 78.36 79.38 79.82 79.76 79.68 79.54 78.86 78.49 78.42 77.06 76.15 72.38 72.61 72.64 71.71 67.03 67.40 70.28 70.10 68.84 68.13 67.67 67.95 67.69 65.59 63.49 61.83 61.70 59.94 58.91 56.86
68.33 70.93 74.27 76.12 78.28 78.89 79.58 78.77 80.03 81.08 79.83 78.90 78.84 79.35 79.75 79.39 79.24 78.72 78.21 78.31 77.13 76.51 75.27 73.88 72.81 71.29 68.44 62.27 63.58 64.66 66.74 66.96 67.93 68.12 66.96 65.52 62.99 63.36 61.23 59.82 58.85 59.28 60.27
71.30 73.68 74.36 76.55 77.87 77.97 78.79 79.36 78.67 79.29 78.89 78.73 78.47 79.21 79.35 78.80 79.08 78.72 78.44 77.79 76.15 74.79 74.44 73.75 73.48 71.59 65.08 60.30 61.29 62.43 67.25 67.44 67.81 67.59 67.25 65.73 64.36 54.93 55.63 56.77 57.16 57.73 59.64
74.80 75.31 74.86 78.88 78.06 77.20 78.58 78.26 78.06 78.24 77.92 77.94 78.68 79.15 79.43 78.77 78.30 77.26 76.80 75.61 73.85 73.23 72.36 72.50 72.12 70.82 64.89 58.32 59.05 62.69 65.34 65.73 67.09 67.20 65.93 64.31 58.79 51.90 52.04 54.51 55.80 56.34 56.95
72.59 73.72 73.43 77.48 78.33 79.16 78.93 78.34 77.89 77.73 77.69 78.36 79.08 78.75 77.86 76.60 74.08 74.36 74.49 75.09 74.40 72.39 70.75 72.88 70.56 67.62 65.59 57.43 56.53 62.75 66.23 65.47 65.37 65.83 55.88 53.21 53.10 50.11 49.58 52.91 54.77 54.60 52.90
74.86 74.43 76.89 76.54 78.17 79.27 78.50 77.91 78.24 77.78 78.67 77.40 77.30 75.85 76.43 74.46 73.41 73.85 75.30 72.44 70.35 70.71 70.89 69.48 69.93 69.66 65.68 57.13 54.98 54.67 62.74 60.77 59.59 60.25 59.42 53.71 50.32 48.44 47.59 47.96 54.87 53.13 51.68
73.60 74.81 76.53 76.89 78.47 78.95 78.79 77.45 75.89 76.63 77.32 76.86 75.92 75.47 74.27 73.60 74.78 72.75 70.65 71.24 70.90 69.86 69.43 70.06 68.50 67.57 62.58 55.38 52.18 51.86 52.16 54.90 59.30 60.19 58.66 56.72 48.08 46.85 46.83 48.70 49.50 49.30 52.26
74.64 76.40 76.94 77.29 78.39 78.99 77.34 76.71 76.40 76.62 75.88 75.62 75.62 75.05 75.28 74.65 72.36 70.64 71.46 70.69 71.81 69.51 68.36 67.52 66.87 66.44 61.57 58.10 50.93 50.82 52.12 52.73 57.19 60.75 54.87 51.77 49.41 48.65 50.98 49.92 50.07 51.79 51.95
75.05 75.89 75.91 75.10 73.68 74.01 74.29 75.78 76.49 76.83 75.68 74.99 73.91 73.36 72.99 72.48 72.95 72.19 71.72 70.71 69.59 70.08 68.74 66.57 66.39 66.91 65.64 58.78 56.97 56.48 54.83 52.84 55.87 57.55 58.93 55.79 53.30 52.80 51.77 54.59 53.85 51.74 51.40
73.87 74.02 72.88 72.63 72.94 73.89 74.02 74.64 75.21 75.34 73.83 74.00 73.13 71.79 71.57 71.74 66.12 61.09 62.41 68.45 58.24 61.24 66.66 67.33 66.40 64.19 63.20 59.95 53.26 55.95 57.73 56.96 51.49 50.31 58.03 57.37 55.59 54.25 53.56 54.18 53.84 52.56 51.98
71.67 70.97 71.24 71.95 72.60 73.46 73.98 74.87 75.58 75.20 73.64 72.57 71.95 71.39 71.41 68.70 65.71 62.25 57.67 49.18 49.65 47.75 49.78 52.14 61.33 53.86 51.50 43.21 42.67 43.14 44.31 45.62 46.65 54.67 56.18 54.15 53.68 52.21 51.92 51.65 51.65 51.29 50.62

GFSMW_sfc_wetblb_171.txt.gz
Wetbulb
67.84 70.73 71.37 71.49 72.62 72.79 73.39 73.80 73.30 72.11 72.71 72.44 72.24 71.60 71.54 71.36 72.06 72.98 74.00 74.72 74.99 73.41 73.64 71.87 72.38 73.36 71.33 72.50 73.06 72.78 69.20 67.48 66.72 63.14 63.90 65.73 66.56 65.04 65.22 66.38 66.10 66.00 65.98
67.09 68.75 70.03 71.11 72.34 72.64 73.02 73.37 73.71 75.17 73.25 74.08 73.16 72.34 71.72 72.64 73.03 72.57 72.85 75.81 74.49 73.39 74.82 73.00 72.76 72.35 73.77 73.05 71.84 71.94 68.61 67.17 66.00 64.35 63.29 60.61 62.90 63.00 65.69 65.53 66.28 65.44 65.48
66.09 67.82 68.97 69.81 71.50 72.48 73.29 73.23 73.89 75.00 74.54 74.12 73.73 73.57 73.70 72.42 72.49 72.46 72.52 74.64 74.93 74.78 74.38 74.00 72.71 72.91 74.33 72.68 72.46 70.98 68.20 63.80 65.30 66.21 62.70 60.46 57.91 61.02 64.01 64.85 63.93 62.78 63.37
65.84 67.76 68.87 69.65 70.76 72.21 73.85 74.10 74.29 74.42 74.71 74.30 73.34 71.90 71.39 70.34 70.98 71.44 72.96 74.27 74.92 74.89 75.87 75.45 74.39 74.48 74.38 73.51 72.50 71.33 68.03 66.35 64.43 65.08 67.09 65.14 63.46 60.68 59.07 60.07 60.90 61.34 60.61
65.19 67.12 68.90 69.87 71.09 72.67 73.37 74.26 74.32 74.52 75.32 74.48 73.93 73.21 71.99 70.98 71.63 72.05 70.85 72.59 74.28 75.20 75.53 75.42 74.85 75.09 75.79 74.48 70.52 68.70 67.03 66.74 65.91 65.09 64.63 64.14 63.57 61.15 57.27 53.40 56.36 58.44 58.05
65.21 67.18 69.40 70.15 70.47 72.08 73.31 74.01 74.10 74.12 75.01 75.27 74.29 73.41 72.22 71.70 71.18 70.82 71.43 71.94 74.98 75.39 75.19 75.90 75.60 75.12 74.64 72.58 70.83 68.92 68.06 67.17 67.34 66.78 66.00 64.93 59.96 58.11 56.27 53.76 53.52 54.16 56.68
64.75 65.61 67.19 68.66 69.15 70.10 72.13 73.28 74.10 73.50 74.90 75.11 74.89 74.21 73.96 72.89 71.58 72.25 72.02 72.25 72.44 73.10 74.46 74.81 75.46 75.03 73.93 72.85 70.98 69.54 68.50 68.20 67.29 67.34 66.38 64.32 61.56 60.45 57.66 55.68 54.17 53.26 55.60
63.81 65.33 67.21 68.60 69.02 69.58 70.35 72.21 72.56 73.55 74.37 74.72 75.05 74.90 73.70 74.73 73.98 72.30 73.93 73.89 72.38 72.91 73.36 75.15 75.48 74.81 73.57 71.31 70.54 70.22 68.86 68.65 68.84 67.42 65.64 63.97 61.85 60.12 58.84 56.58 54.92 53.14 52.17
64.03 64.94 66.83 68.16 69.32 69.65 69.88 70.64 71.71 73.55 74.19 74.41 74.64 75.39 75.29 73.81 74.53 75.87 74.46 73.97 74.58 73.88 75.18 75.35 75.10 74.12 72.95 71.73 71.02 69.73 68.69 68.32 68.74 67.84 65.86 63.44 62.17 61.09 59.62 59.26 57.38 54.59 52.16
64.90 64.97 66.65 67.70 69.21 70.10 70.43 70.74 71.07 72.98 74.18 74.83 74.79 75.21 76.22 75.90 74.75 74.73 74.93 74.71 73.58 73.58 75.23 74.80 74.38 72.86 71.74 71.24 70.93 69.39 69.30 69.26 68.64 65.10 63.41 61.80 61.84 60.65 60.50 59.50 58.64 56.95 54.47
65.42 65.71 66.53 68.25 69.06 70.00 70.28 70.29 70.56 72.64 73.80 74.98 75.89 75.46 76.07 76.84 76.70 75.47 75.20 74.83 75.17 74.40 74.90 74.85 73.46 72.32 71.01 70.99 70.04 69.44 69.32 68.58 67.16 64.65 62.61 61.76 62.16 61.42 60.98 60.20 59.01 56.18 55.20
65.51 66.61 66.71 67.59 69.15 69.58 70.10 70.15 70.58 71.54 74.02 75.32 75.55 76.17 76.28 76.64 76.88 76.84 76.22 76.27 75.03 75.91 75.67 73.80 72.30 71.58 70.95 69.45 68.58 68.28 69.12 68.76 66.44 65.01 62.77 62.41 63.69 60.98 61.25 58.90 56.26 56.48 57.58
61.84 63.44 66.72 66.55 67.39 69.29 70.33 70.41 70.94 71.11 73.06 75.41 76.06 76.18 76.30 76.75 76.77 77.03 77.39 76.51 76.41 75.93 75.04 73.67 71.94 70.93 70.15 69.41 68.98 69.25 68.51 66.94 66.29 64.04 62.88 62.35 61.78 60.76 59.06 58.16 56.49 57.79 57.90
62.10 62.85 65.86 67.92 67.81 67.99 69.06 70.28 71.01 71.92 72.18 74.76 75.90 76.13 76.37 76.83 77.45 77.46 77.51 77.60 76.42 76.48 75.94 74.35 72.61 70.56 69.95 69.65 69.87 69.53 67.38 65.39 64.46 63.58 63.02 62.40 61.87 58.89 57.79 56.73 56.37 55.14 53.68
62.51 63.98 65.53 66.44 69.30 68.02 68.02 68.90 69.87 71.25 71.98 72.36 75.04 75.69 76.42 77.28 77.27 77.53 77.26 77.26 77.05 76.78 75.76 73.02 71.17 70.07 69.77 71.16 69.24 69.14 67.50 64.64 63.19 63.38 63.32 62.80 63.35 62.95 60.56 56.85 54.53 52.77 50.74
64.44 66.32 66.87 67.76 69.20 71.57 70.19 69.47 69.13 69.80 70.98 72.51 72.70 75.82 75.89 77.14 76.68 77.07 76.85 77.00 76.63 74.47 73.18 71.37 70.65 70.41 72.00 66.99 66.00 68.84 65.96 64.42 62.70 62.22 62.91 62.88 62.39 61.47 61.30 60.83 59.25 57.70 52.49
61.72 65.19 66.73 68.08 69.05 71.96 72.84 73.05 72.16 71.41 71.88 72.38 74.42 76.10 76.28 76.24 76.64 76.30 76.37 75.87 75.79 74.43 71.39 71.22 71.48 70.17 67.04 63.08 64.50 65.80 63.83 62.84 62.28 62.64 62.19 62.07 61.57 57.24 54.49 54.91 56.64 56.75 58.25
62.74 64.13 68.33 69.77 71.31 72.81 72.01 73.54 75.29 74.42 74.12 74.40 75.68 76.65 76.73 76.29 75.93 75.44 75.34 74.85 74.22 73.41 71.98 71.29 70.88 65.52 63.58 61.47 61.69 63.09 61.79 61.83 62.54 63.06 62.56 60.09 51.85 50.82 49.67 49.73 50.61 51.97 53.45
63.63 65.97 70.20 71.25 72.02 72.58 73.19 73.52 74.33 74.89 74.95 74.98 75.87 76.30 76.26 75.76 75.38 74.82 74.04 73.42 72.80 72.26 70.49 70.17 68.44 63.33 60.58 59.72 59.24 60.29 60.81 60.67 61.25 56.74 57.89 52.91 49.00 52.01 51.67 46.76 49.21 49.68 51.69
63.70 63.66 67.04 73.00 72.28 73.33 73.70 73.48 73.69 73.96 74.12 75.23 76.31 76.62 76.26 75.35 74.38 74.53 73.43 72.53 72.01 71.06 70.45 68.20 67.30 62.27 60.61 57.94 56.68 60.28 60.54 58.04 56.92 50.16 47.19 52.81 47.36 49.38 49.05 44.53 46.38 47.80 47.57
66.26 66.51 71.78 73.16 73.37 74.07 74.39 73.75 73.69 73.48 75.72 75.81 75.22 74.44 73.35 72.70 73.23 73.51 72.68 71.53 69.91 68.91 67.61 67.05 66.47 63.83 59.74 56.43 55.16 57.60 55.91 54.05 53.42 53.56 49.75 46.65 49.81 47.65 46.87 47.38 43.38 48.32 47.62
70.96 73.10 73.31 73.77 74.06 74.70 74.79 74.08 74.25 74.96 74.55 73.92 73.32 72.72 71.63 72.11 72.64 71.10 70.24 68.71 67.99 66.65 65.89 65.78 64.88 61.83 58.41 54.06 51.32 52.25 52.16 54.45 51.73 53.58 51.17 48.98 47.73 46.59 46.66 47.02 48.52 49.04 49.67
73.16 73.88 74.33 74.68 74.85 75.31 74.86 73.39 73.57 73.94 73.48 73.15 72.45 71.14 71.12 70.75 69.82 69.09 67.95 68.44 67.26 66.12 65.16 65.54 63.08 59.08 56.92 52.87 50.56 50.20 51.13 52.49 52.31 52.27 50.97 51.14 49.29 48.41 48.27 49.80 49.59 48.16 45.68
72.56 72.13 71.50 70.99 71.13 72.61 73.18 73.42 73.35 73.81 73.58 71.42 71.56 71.24 70.07 69.21 69.29 69.29 68.33 67.50 66.60 65.40 65.33 64.50 63.92 58.96 55.75 54.56 54.39 50.34 48.63 51.35 52.34 53.52 49.80 52.62 51.20 51.48 49.86 49.07 47.45 45.48 46.77
70.58 70.91 70.53 70.36 70.40 71.94 72.88 73.41 73.43 73.03 71.76 70.63 70.57 70.18 69.55 68.13 59.85 53.69 51.51 60.83 53.64 55.08 64.82 64.19 63.01 60.54 56.27 57.15 52.52 52.13 52.96 52.02 45.80 46.50 49.93 47.76 46.15 45.11 45.03 46.04 45.92 44.49 45.25
69.69 69.71 69.62 69.67 69.90 71.22 71.72 72.34 72.04 71.39 70.65 69.39 68.40 68.31 67.50 63.39 59.37 57.30 53.66 47.73 46.34 45.29 46.44 52.56 59.16 55.53 51.78 46.50 44.69 43.33 43.44 44.13 45.78 48.76 45.85 45.06 44.84 44.46 43.53 43.53 44.06 44.21 45.92

GFSMW_sfc_wetblb_174.txt.gz
Wetbulb
68.76 70.06 70.46 70.66 70.27 70.63 70.52 70.54 70.58 71.14 71.12 70.41 69.47 69.31 69.59 69.82 69.75 70.26 72.10 73.57 74.25 73.95 72.09 71.39 71.06 72.15 69.87 72.37 71.20 71.03 68.68 66.68 65.50 62.31 62.53 63.98 64.62 63.39 63.92 65.19 64.89 64.26 64.36
67.98 69.06 69.58 69.89 69.67 69.34 70.89 70.03 70.32 70.72 71.13 71.14 71.09 70.16 70.59 71.13 70.89 70.85 71.49 72.86 73.49 73.15 71.88 71.06 70.65 71.51 71.72 72.09 71.81 70.65 67.86 66.60 64.94 62.73 61.47 59.25 61.84 62.01 64.38 64.03 64.39 62.17 62.22
66.61 67.74 68.78 69.06 69.97 69.52 70.12 71.53 71.29 70.73 71.20 71.36 71.21 71.44 71.05 70.68 70.44 70.87 70.57 72.80 74.23 73.44 73.32 72.66 71.18 70.01 72.42 71.41 70.85 70.52 67.87 64.70 63.64 64.46 61.95 59.52 57.84 60.19 62.47 63.25 60.55 59.95 58.77
66.05 67.80 68.48 68.46 70.12 70.90 71.35 72.30 72.71 73.06 71.53 72.76 71.76 71.24 70.87 70.03 70.30 70.07 71.21 72.20 74.09 73.38 73.16 72.99 72.82 71.85 73.11 72.26 71.36 70.78 67.32 64.73 62.51 63.32 66.21 63.85 61.97 59.58 58.09 58.11 58.38 58.30 58.48
66.29 66.41 68.14 69.31 70.79 71.96 71.65 72.25 72.57 73.67 73.61 73.01 72.96 71.98 71.29 71.03 70.68 70.79 70.30 71.17 72.60 73.66 73.71 73.73 73.19 72.77 72.87 72.95 71.67 69.03 67.11 66.02 63.89 64.53 63.66 63.91 62.06 60.09 56.58 52.40 54.63 56.00 56.64
65.95 66.97 68.40 69.46 70.13 72.07 72.44 72.30 71.95 72.36 73.68 73.46 72.90 72.18 71.63 70.52 70.31 70.46 70.05 69.36 70.59 73.43 73.47 73.94 73.69 73.10 73.45 73.27 70.00 68.56 67.18 66.19 66.66 65.72 65.06 64.81 60.80 57.32 54.92 52.53 52.40 53.16 55.84
65.34 65.51 67.07 67.97 69.06 70.03 71.78 72.65 72.15 71.69 73.04 73.49 72.96 72.77 72.66 71.57 71.09 70.41 69.87 69.02 71.05 72.37 73.61 73.59 73.61 73.58 73.51 72.36 70.12 68.48 67.82 67.03 66.22 66.19 66.77 64.80 61.68 59.96 56.43 54.36 52.90 52.92 54.61
64.43 64.84 66.97 68.15 69.02 69.93 71.15 71.85 72.14 71.76 72.75 73.51 73.34 73.13 72.61 73.09 72.65 71.15 71.31 71.41 70.74 72.22 73.22 73.74 73.81 74.18 73.62 72.05 70.08 69.05 68.13 67.68 67.02 66.53 66.53 63.98 61.96 58.95 57.38 55.85 54.38 52.25 51.43
63.60 64.11 66.29 68.45 68.65 69.54 70.69 71.50 71.83 72.24 72.55 73.40 73.76 73.79 73.64 72.50 72.98 73.27 70.98 72.34 72.69 72.46 71.97 72.86 73.49 73.89 72.71 71.10 69.94 68.96 68.39 67.80 67.06 67.63 66.84 64.33 62.18 60.03 58.85 57.87 56.41 54.01 50.62
63.52 64.12 65.50 67.46 68.81 69.42 70.13 71.58 71.99 72.21 72.75 73.21 73.68 73.98 74.01 73.59 72.87 73.25 74.41 73.29 73.01 72.13 73.17 73.25 73.45 72.96 72.48 71.26 69.27 68.77 68.75 68.41 67.92 67.13 64.10 62.96 61.90 59.50 59.56 58.93 57.74 56.29 53.71
63.36 63.35 64.91 66.98 68.59 69.24 69.53 69.95 71.13 71.48 72.34 73.28 73.35 73.54 73.96 74.26 73.79 72.51 73.14 74.74 73.65 73.00 72.27 73.35 73.14 72.24 71.53 69.79 69.41 69.18 68.87 67.76 67.35 65.39 63.10 62.86 62.08 60.11 60.56 59.37 57.91 55.31 54.00
64.34 63.76 64.47 66.07 67.13 68.26 68.74 68.80 69.80 70.59 72.16 73.03 73.08 73.10 73.38 74.46 74.39 73.96 73.21 73.11 73.34 73.28 73.00 73.28 72.63 72.15 71.51 69.86 69.47 68.73 68.52 66.66 66.50 65.33 64.13 62.57 63.04 60.12 59.80 58.60 55.90 55.04 56.09
64.36 63.64 63.72 64.64 66.06 67.30 68.37 68.89 69.11 69.55 71.33 72.48 72.85 73.27 73.04 73.49 75.01 75.21 75.27 74.52 74.48 73.33 74.22 73.17 72.58 71.45 69.63 68.53 68.84 68.35 67.99 67.40 66.57 65.83 63.89 62.10 61.03 59.76 58.07 57.08 55.71 55.79 55.27
62.16 62.08 63.35 63.99 65.71 66.80 67.66 68.46 68.87 69.52 70.45 72.02 72.89 72.80 73.92 74.26 74.71 75.68 76.16 75.76 75.13 75.01 74.19 73.26 72.26 70.26 69.47 69.31 69.02 68.46 67.96 66.86 65.63 64.78 63.39 61.90 60.88 59.08 57.26 55.85 55.47 53.50 51.15
60.15 62.47 63.60 64.07 64.25 66.03 67.43 68.41 68.93 69.15 69.53 71.94 72.59 73.04 73.93 75.11 75.46 75.52 76.19 76.63 75.92 75.64 75.32 72.75 69.63 69.27 69.86 70.00 68.82 69.02 67.45 65.53 64.40 63.47 61.89 61.99 61.77 61.77 58.39 55.75 53.44 51.26 49.09
60.90 62.64 64.43 64.59 64.59 65.30 65.86 67.69 68.65 68.93 69.75 71.31 72.45 73.55 74.58 75.16 75.65 76.17 76.52 76.69 76.84 74.93 73.36 70.99 70.06 70.08 71.31 66.21 65.83 67.78 67.26 65.82 63.51 61.66 61.57 61.25 62.14 61.29 60.69 58.88 58.33 56.50 50.43
60.74 61.77 64.15 65.62 67.57 68.26 65.86 64.80 66.16 67.87 69.53 69.85 70.61 73.44 74.62 75.46 75.67 76.66 76.53 76.29 74.45 71.69 71.40 71.55 71.36 69.79 69.13 63.06 63.24 65.17 65.54 63.31 61.74 61.98 61.61 60.60 58.34 54.57 50.90 52.10 53.50 53.54 56.07
59.78 61.66 62.68 62.94 65.55 69.21 68.84 68.30 67.05 67.26 67.84 68.55 70.97 74.22 75.26 75.56 76.02 76.23 75.44 73.40 72.78 71.94 72.05 70.72 70.31 67.36 63.95 60.56 60.79 62.20 61.99 61.12 61.68 61.11 60.97 55.97 50.12 49.67 47.46 46.68 47.91 48.25 49.17
61.40 61.63 63.84 65.84 69.43 69.69 71.61 72.83 71.59 70.78 70.75 72.32 73.83 74.88 75.50 75.72 75.28 74.20 73.15 72.38 72.93 71.53 70.60 70.06 67.13 63.69 61.40 58.30 59.13 59.84 59.84 60.12 56.16 56.12 53.30 50.04 46.69 51.74 51.74 46.33 45.95 46.58 47.01
62.75 64.83 68.13 69.99 70.26 70.53 72.04 73.01 72.38 72.69 72.82 74.41 75.13 75.57 75.72 75.11 74.25 74.22 72.63 71.17 71.35 69.23 69.57 68.03 64.11 60.83 61.05 57.12 56.41 58.69 60.06 53.23 48.27 46.49 47.69 52.11 46.57 49.60 48.94 42.52 43.14 44.33 44.79
62.10 64.59 70.11 70.17 70.69 70.75 71.70 71.84 71.96 72.15 74.42 75.39 75.29 75.25 75.03 74.48 73.61 71.76 70.92 70.36 69.92 69.70 67.99 65.35 61.62 60.28 58.92 56.03 55.55 55.66 54.78 53.76 50.97 48.97 47.50 44.78 49.46 47.19 46.84 46.60 44.01 45.19 46.77
68.02 70.92 70.71 70.64 71.40 72.53 72.71 71.58 72.84 74.13 74.20 73.82 72.54 71.60 72.09 72.99 72.27 70.85 70.39 69.90 68.44 66.79 64.87 63.98 60.40 57.87 56.94 53.74 52.29 51.20 51.77 53.43 52.46 49.81 49.11 46.62 47.27 46.32 47.43 46.65 48.31 48.06 47.74
71.37 71.87 72.18 71.91 72.14 72.82 73.76 72.55 72.98 73.10 72.65 71.74 70.91 70.78 71.05 70.73 71.14 70.71 68.50 66.56 65.80 65.10 63.60 62.58 59.56 55.30 53.64 51.69 50.16 49.48 51.23 52.27 52.65 49.55 49.34 49.82 47.60 46.71 47.26 48.82 47.91 47.24 45.10
69.99 70.93 71.33 70.71 70.65 72.52 72.98 72.99 72.49 72.61 71.67 70.76 70.58 70.33 69.56 67.10 66.88 66.88 66.17 65.59 64.28 63.71 63.64 61.71 58.27 54.70 53.40 52.05 49.86 48.37 50.58 51.47 50.96 49.00 49.50 50.87 48.90 49.02 48.52 45.79 44.60 43.83 45.42
69.68 70.35 70.35 70.76 71.38 71.99 71.97 72.77 72.57 72.50 71.31 70.53 69.79 68.30 65.01 59.57 55.53 50.02 53.59 59.02 56.26 59.78 63.53 62.40 59.50 55.86 53.75 55.05 49.92 47.41 49.45 49.59 44.58 47.06 45.30 44.28 43.08 42.59 42.71 43.30 43.10 42.81 43.06
68.86 68.73 68.96 69.86 70.22 71.23 71.21 71.44 72.20 71.61 70.48 69.29 68.59 65.57 62.15 59.86 58.11 54.83 50.66 47.02 46.14 45.38 48.79 52.78 58.58 55.92 52.44 48.12 46.09 45.36 44.06 43.32 45.73 44.79 43.11 41.94 42.04 41.64 41.30 41.71 41.12 40.97 42.85